| time (UTC) | temp C | wind direction | speed KPH | gust KPH | rain 1hr cm | rain 24hr cm | rain mn cm | humidity % | barometer mb |
| 20260508023008 | 9 | 311 | 0.0 | 4.8 | 0.00 | 0.00 | 0.00 | 42 | 1012.9 |
| 20260508021507 | 9 | 311 | 1.6 | 8.0 | 0.00 | 0.00 | 0.00 | 40 | 1012.6 |
| 20260508020007 | 9 | 317 | 1.6 | 6.4 | 0.00 | 0.00 | 0.00 | 39 | 1012.5 |
| 20260508014508 | 10 | 282 | 3.2 | 11.3 | 0.00 | 0.00 | 0.00 | 38 | 1012.5 |
| 20260508013006 | 10 | 329 | 3.2 | 6.4 | 0.00 | 0.00 | 0.00 | 37 | 1012.4 |
| 20260508011505 | 10 | 312 | 3.2 | 12.9 | 0.00 | 0.00 | 0.00 | 35 | 1012.1 |
| 20260508010004 | 10 | 321 | 3.2 | 17.7 | 0.00 | 0.00 | 0.00 | 34 | 1011.8 |
| 20260508004504 | 11 | 323 | 8.0 | 16.1 | 0.00 | 0.00 | 0.00 | 33 | 1011.5 |
| 20260508003002 | 11 | 304 | 8.0 | 24.1 | 0.00 | 0.00 | 0.00 | 32 | 1011.2 |
| 20260508001502 | 12 | 298 | 11.3 | 24.1 | 0.00 | 0.00 | 0.00 | 32 | 1011.0 |
| 20260508000002 | 12 | 314 | 11.3 | 24.1 | 0.00 | 0.00 | 0.00 | 31 | 1010.7 |
| 20260507234501 | 12 | 286 | 11.3 | 22.5 | 0.00 | 0.00 | 0.00 | 30 | 1010.6 |
| 20260507233100 | 13 | 325 | 9.7 | 27.4 | 0.00 | 0.00 | 0.00 | 30 | 1010.5 |
| 20260507231601 | 13 | 327 | 12.9 | 30.6 | 0.00 | 0.00 | 0.00 | 29 | 1010.3 |
| 20260507230105 | 13 | 279 | 11.3 | 19.3 | 0.00 | 0.00 | 0.00 | 27 | 1010.2 |
| 20260507224608 | 14 | 316 | 12.9 | 25.7 | 0.00 | 0.00 | 0.00 | 26 | 1009.9 |
| 20260507223057 | 14 | 267 | 9.7 | 20.9 | 0.00 | 0.00 | 0.00 | 28 | 1010.0 |
| 20260507221559 | 13 | 300 | 11.3 | 24.1 | 0.00 | 0.00 | 0.00 | 27 | 1009.8 |
| 20260507220056 | 13 | 236 | 9.7 | 20.9 | 0.00 | 0.00 | 0.00 | 27 | 1009.7 |
| 20260507214605 | 14 | 289 | 11.3 | 30.6 | 0.00 | 0.00 | 0.00 | 26 | 1009.4 |
| 20260507213057 | 14 | 300 | 12.9 | 30.6 | 0.00 | 0.00 | 0.00 | 24 | 1009.2 |
| 20260507211556 | 14 | 355 | 6.4 | 19.3 | 0.00 | 0.00 | 0.00 | 26 | 1009.5 |
| 20260507210100 | 14 | 277 | 16.1 | 24.1 | 0.00 | 0.00 | 0.00 | 26 | 1009.2 |
| 20260507204553 | 14 | 269 | 6.4 | 25.7 | 0.00 | 0.00 | 0.00 | 26 | 1009.2 |
| 20260507203106 | 14 | 307 | 14.5 | 25.7 | 0.00 | 0.00 | 0.00 | 25 | 1009.1 |
| 20260507201559 | 14 | 281 | 9.7 | 25.7 | 0.00 | 0.00 | 0.00 | 26 | 1009.1 |
| 20260507200104 | 14 | 290 | 11.3 | 27.4 | 0.00 | 0.00 | 0.00 | 26 | 1009.3 |
| 20260507194549 | 13 | 268 | 4.8 | 27.4 | 0.00 | 0.00 | 0.00 | 27 | 1009.5 |
| 20260507193049 | 14 | 227 | 6.4 | 29.0 | 0.00 | 0.00 | 0.00 | 26 | 1009.6 |
| 20260507191547 | 14 | 314 | 11.3 | 30.6 | 0.00 | 0.00 | 0.00 | 26 | 1009.8 |
| 20260507190048 | 14 | 263 | 9.7 | 25.7 | 0.00 | 0.00 | 0.00 | 27 | 1009.7 |
| 20260507184551 | 13 | 274 | 8.0 | 25.7 | 0.00 | 0.00 | 0.00 | 29 | 1009.7 |
| 20260507183047 | 14 | 231 | 17.7 | 33.8 | 0.00 | 0.00 | 0.00 | 27 | 1009.8 |
| 20260507181539 | 14 | 176 | 17.7 | 27.4 | 0.00 | 0.00 | 0.00 | 28 | 1010.0 |
| 20260507180040 | 13 | 291 | 14.5 | 24.1 | 0.00 | 0.00 | 0.00 | 30 | 1010.3 |
| 20260507174538 | 14 | 267 | 6.4 | 16.1 | 0.00 | 0.00 | 0.00 | 31 | 1010.3 |
| 20260507173036 | 13 | 282 | 9.7 | 19.3 | 0.00 | 0.00 | 0.00 | 32 | 1010.6 |
| 20260507171633 | 13 | 246 | 8.0 | 19.3 | 0.00 | 0.00 | 0.00 | 32 | 1010.6 |
| 20260507170036 | 13 | 212 | 4.8 | 16.1 | 0.00 | 0.00 | 0.00 | 34 | 1010.8 |
| 20260507164531 | 13 | 315 | 11.3 | 25.7 | 0.00 | 0.00 | 0.00 | 32 | 1010.8 |
| 20260507163025 | 13 | 267 | 8.0 | 14.5 | 0.00 | 0.00 | 0.00 | 34 | 1011.2 |
| 20260507161524 | 12 | 217 | 19.3 | 30.6 | 0.00 | 0.00 | 0.00 | 33 | 1011.3 |
| 20260507160022 | 13 | 226 | 12.9 | 24.1 | 0.00 | 0.00 | 0.00 | 31 | 1011.4 |
| 20260507154520 | 13 | 296 | 11.3 | 22.5 | 0.00 | 0.00 | 0.00 | 31 | 1011.5 |
| 20260507153017 | 13 | 267 | 4.8 | 17.7 | 0.00 | 0.00 | 0.00 | 33 | 1011.6 |
| 20260507151514 | 11 | 232 | 9.7 | 20.9 | 0.00 | 0.00 | 0.00 | 34 | 1012.0 |
| 20260507150020 | 12 | 319 | 12.9 | 22.5 | 0.00 | 0.00 | 0.00 | 34 | 1012.0 |
| 20260507144519 | 11 | 261 | 8.0 | 20.9 | 0.00 | 0.00 | 0.00 | 38 | 1012.4 |
| 20260507143002 | 11 | 273 | 4.8 | 24.1 | 0.00 | 0.00 | 0.00 | 40 | 1012.4 |
| 20260507141602 | 11 | 287 | 9.7 | 20.9 | 0.00 | 0.00 | 0.00 | 42 | 1012.7 |
| 20260507140056 | 10 | 267 | 11.3 | 19.3 | 0.00 | 0.00 | 0.00 | 43 | 1013.0 |
| 20260507134550 | 11 | 218 | 6.4 | 14.5 | 0.00 | 0.03 | 0.00 | 49 | 1013.0 |
| 20260507133100 | 10 | 232 | 3.2 | 11.3 | 0.00 | 0.03 | 0.00 | 53 | 1013.1 |
| 20260507131550 | 10 | 221 | 3.2 | 8.0 | 0.00 | 0.03 | 0.00 | 55 | 1013.2 |
| 20260507130051 | 8 | 241 | 3.2 | 9.7 | 0.00 | 0.03 | 0.00 | 57 | 1013.2 |
| 20260507124533 | 8 | 242 | 1.6 | 6.4 | 0.00 | 0.05 | 0.00 | 59 | 1013.3 |
| 20260507123029 | 8 | 256 | 1.6 | 4.8 | 0.00 | 0.05 | 0.00 | 62 | 1013.1 |
| 20260507121525 | 7 | 268 | 3.2 | 6.4 | 0.00 | 0.05 | 0.00 | 63 | 1013.3 |
| 20260507120024 | 6 | 269 | 3.2 | 9.7 | 0.00 | 0.05 | 0.00 | 66 | 1013.1 |
| 20260507114517 | 6 | 310 | 1.6 | 4.8 | 0.00 | 0.18 | 0.00 | 67 | 1013.3 |
| 20260507113015 | 6 | 346 | 0.0 | 1.6 | 0.00 | 0.18 | 0.00 | 68 | 1013.1 |
| 20260507111509 | 5 | 346 | 0.0 | 1.6 | 0.00 | 0.18 | 0.00 | 69 | 1012.8 |
| 20260507110005 | 5 | 346 | 0.0 | 0.0 | 0.00 | 0.41 | 0.00 | 68 | 1012.8 |
| 20260507104601 | 4 | 346 | 0.0 | 0.0 | 0.00 | 0.41 | 0.00 | 68 | 1012.7 |
| 20260507103058 | 4 | 346 | 0.0 | 0.0 | 0.00 | 0.41 | 0.00 | 68 | 1012.4 |
| 20260507101603 | 4 | 346 | 0.0 | 1.6 | 0.00 | 0.41 | 0.00 | 67 | 1012.4 |
| 20260507100057 | 5 | 346 | 0.0 | 0.0 | 0.00 | 0.41 | 0.00 | 68 | 1012.5 |
| 20260507094552 | 5 | 346 | 0.0 | 0.0 | 0.00 | 0.71 | 0.00 | 67 | 1012.4 |
| 20260507093051 | 5 | 346 | 0.0 | 1.6 | 0.00 | 0.71 | 0.00 | 66 | 1012.4 |
| 20260507091550 | 5 | 346 | 0.0 | 0.0 | 0.00 | 0.71 | 0.00 | 64 | 1012.5 |
| 20260507090049 | 5 | 346 | 0.0 | 1.6 | 0.00 | 0.71 | 0.00 | 63 | 1012.4 |
| 20260507084556 | 5 | 346 | 0.0 | 0.0 | 0.00 | 0.99 | 0.00 | 62 | 1012.5 |
| 20260507083047 | 5 | 346 | 0.0 | 0.0 | 0.00 | 0.99 | 0.00 | 62 | 1012.4 |
| 20260507081546 | 5 | 346 | 0.0 | 0.0 | 0.00 | 0.99 | 0.00 | 62 | 1012.4 |
| 20260507080048 | 6 | 346 | 0.0 | 0.0 | 0.00 | 0.99 | 0.00 | 61 | 1012.4 |
| 20260507074542 | 6 | 346 | 0.0 | 0.0 | 0.00 | 0.99 | 0.00 | 60 | 1012.4 |
| 20260507073040 | 6 | 346 | 0.0 | 0.0 | 0.00 | 0.99 | 0.00 | 60 | 1012.4 |
| 20260507071539 | 6 | 346 | 0.0 | 1.6 | 0.00 | 0.99 | 0.00 | 61 | 1012.6 |
| 20260507070039 | 6 | 346 | 0.0 | 1.6 | 0.00 | 0.99 | 0.00 | 62 | 1012.6 |
| 20260507064538 | 6 | 346 | 0.0 | 1.6 | 0.00 | 1.09 | 0.00 | 63 | 1012.5 |
| 20260507063037 | 6 | 346 | 0.0 | 0.0 | 0.00 | 1.09 | 0.00 | 61 | 1012.7 |
| 20260507061535 | 6 | 346 | 0.0 | 0.0 | 0.00 | 1.09 | 0.00 | 61 | 1012.6 |
| 20260507060031 | 7 | 346 | 0.0 | 3.2 | 0.00 | 1.09 | 0.00 | 60 | 1012.6 |
| 20260507054536 | 7 | 346 | 0.0 | 4.8 | 0.00 | 1.19 | 0.00 | 59 | 1012.7 |
| 20260507053026 | 7 | 346 | 1.6 | 6.4 | 0.00 | 1.19 | 0.00 | 58 | 1012.8 |
| 20260507051529 | 7 | 347 | 1.6 | 6.4 | 0.00 | 1.19 | 0.00 | 57 | 1013.2 |
| 20260507050027 | 7 | 350 | 1.6 | 8.0 | 0.00 | 1.19 | 0.00 | 56 | 1013.2 |
| 20260507044521 | 7 | 346 | 1.6 | 3.2 | 0.00 | 1.22 | 0.00 | 55 | 1013.2 |
| 20260507043023 | 8 | 346 | 1.6 | 4.8 | 0.00 | 1.22 | 0.00 | 54 | 1013.1 |
| 20260507041518 | 8 | 11 | 1.6 | 6.4 | 0.00 | 1.22 | 0.00 | 55 | 1013.2 |
| 20260507040014 | 8 | 11 | 1.6 | 4.8 | 0.00 | 1.22 | 0.00 | 55 | 1013.0 |
| 20260507034513 | 8 | 13 | 1.6 | 4.8 | 0.00 | 1.22 | 1.22 | 55 | 1012.8 |
| 20260507033011 | 8 | 17 | 1.6 | 6.4 | 0.00 | 1.22 | 1.22 | 55 | 1012.9 |
| 20260507031511 | 8 | 360 | 0.0 | 6.4 | 0.00 | 1.22 | 1.22 | 55 | 1012.8 |
| 20260507030009 | 8 | 5 | 0.0 | 0.0 | 0.00 | 1.22 | 1.22 | 54 | 1012.4 |
| 20260507024511 | 8 | 5 | 0.0 | 4.8 | 0.00 | 1.22 | 1.22 | 54 | 1012.4 |